Flag for Luxembourg Weather past 2 weeks in Esch-sur-Alzette, Luxembourg

Now
68 °F

Passing clouds.


Feels Like: 68 °F
Forecast: 55 / 76 °F
Wind: 12 mph from Northeast

Location: Luxembourg Airport

Current Time: Jul 25, 2014 at 7:08:15 PM

Latest Report: Jul 25, 2014 at 6:20 PM


Visibility: N/A

Pressure: 29.92 "Hg

Humidity: 60%

Dew point: 54 °F

Location of Esch-sur-AlzetteLocation

Historic Weather in Esch-sur-Alzette — Graph

°F

Esch-sur-Alzette temperature yesterday

Maximum temperature yesterday: 81 °F (at 1:50 PM)
Minimum temperature yesterday: 63 °F (at 9:50 PM)
Average temperature yesterday: 71 °F

Past Weeks' High & Low Weather Summary

 TemperatureHumidityPressure
High90 °F (Jul 18, 3:50 PM)100% (Jul 11, 6:50 AM)30.21 "Hg (Jul 11, 6:50 AM)
Low55 °F (Jul 15, 4:50 AM)29% (Jul 19, 2:20 PM)29.80 "Hg (Jul 13, 5:20 PM)
Average69 °F69%29.99 "Hg
* Reported Jul 10 5:20 PM — Jul 25 5:50 PM, Esch-sur-Alzette, Weather by CustomWeather, © 2014

Note: Actual official high and low records may vary slightly from our data, if they occured in-between our weather recording intervals... More about our weather records

Advertising

Esch-sur-Alzette weather history for previous 24 hours

 ConditionsComfort  
Time TempWeatherWind HumidityBarometerVisibility
5:50 PM
Jul 25
70 °FPassing clouds.17 mph53%29.92 "HgN/A
5:20 PM72 °FScattered clouds.15 mph61%29.92 "HgN/A
4:50 PM68 °FThunderstorms. Partly sunny.5 mph73%29.92 "HgN/A
4:20 PM72 °FThunderstorms. Partly sunny.8 mph61%29.92 "HgN/A
3:50 PM73 °FPartly sunny.6 mph53%29.89 "HgN/A
3:20 PM75 °FPartly sunny.3 mph50%29.89 "HgN/A
2:50 PM73 °FScattered clouds.6 mph50%29.89 "HgN/A
2:20 PM75 °FScattered clouds.2 mph47%29.92 "HgN/A
1:50 PM73 °FScattered clouds.5 mph53%29.92 "HgN/A
1:20 PM75 °FPassing clouds.7 mph54%29.92 "HgN/A
12:50 PM73 °FPassing clouds.7 mph57%29.92 "HgN/A
12:20 PM73 °FPassing clouds.6 mph57%29.95 "HgN/A
11:50 AM72 °FPassing clouds.6 mph61%29.95 "HgN/A
11:20 AM70 °FPassing clouds.5 mph64%29.95 "HgN/A
10:50 AM68 °FPassing clouds.6 mph69%29.95 "HgN/A
10:20 AM68 °FPassing clouds.7 mph69%29.95 "HgN/A
9:50 AM66 °FPassing clouds.7 mph73%29.95 "HgN/A
9:20 AM64 °FPassing clouds.8 mph78%29.95 "HgN/A
8:50 AM63 °FPassing clouds.9 mph77%29.95 "HgN/A
8:20 AM63 °FPassing clouds.12 mph83%29.95 "HgN/A
7:50 AM61 °FPassing clouds.10 mph83%29.95 "HgN/A
7:20 AM59 °FPassing clouds.9 mph88%29.95 "HgN/A
6:50 AM59 °FPassing clouds.9 mph88%29.95 "HgN/A
6:20 AM59 °FPassing clouds.9 mph82%29.95 "HgN/A
5:50 AM59 °FCool.7 mph82%29.95 "HgN/A
5:20 AM59 °FCool.9 mph82%29.95 "HgN/A
4:50 AM59 °FPassing clouds.9 mph82%29.95 "HgN/A
4:20 AM61 °FCool.12 mph77%29.95 "HgN/A
3:50 AM61 °FCool.9 mph77%29.95 "HgN/A
3:20 AM61 °FCool.8 mph77%29.95 "HgN/A
2:50 AM61 °FCool.7 mph77%29.95 "HgN/A
2:20 AM61 °FCool.9 mph77%29.95 "HgN/A
1:50 AM63 °FPassing clouds.10 mph73%29.95 "HgN/A
1:20 AM63 °FPassing clouds.12 mph73%29.95 "HgN/A
12:50 AM63 °FPassing clouds.7 mph73%29.95 "HgN/A
12:20 AM63 °FPassing clouds.10 mph73%29.95 "HgN/A
11:50 PM
Jul 24
63 °FPassing clouds.9 mph73%29.95 "HgN/A
11:20 PM63 °FClear.7 mph77%29.95 "Hg10 mi
10:50 PM63 °FPassing clouds.7 mph77%29.95 "HgN/A
10:20 PM63 °FPassing clouds.5 mph77%29.95 "HgN/A
9:50 PM63 °FPassing clouds.3 mph77%29.95 "HgN/A
9:20 PM64 °FPassing clouds.3 mph73%29.95 "HgN/A
8:50 PM64 °FPassing clouds.6 mph68%29.95 "HgN/A
8:20 PM66 °FSprinkles. Passing clouds.15 mph64%29.95 "HgN/A
7:50 PM66 °FSprinkles. Scattered clouds.15 mph68%29.95 "HgN/A
7:20 PM66 °FThunderstorms. Scattered clouds.21 mph64%29.95 "HgN/A
Weather by CustomWeather, © 2014

See weather overviewHow to use our weather pages